Worcester, MA

3:49 AM EST on January 18, 2018 (GMT -0500)
Worcester Regional

Weather History for KORH - December, 2011

Change the Weather History Date:

Wednesday, December 28, 2011

  Actual Average Record
Temperature  
Mean Temperature 40 °F 26 °F  
Max Temperature 55 °F 33 °F 61 °F (1982)
Min Temperature 24 °F 19 °F -8 °F (1933)
Degree Days  
Heating Degree Days 25 39  
Month to date heating degree days 781 981  
Since 1 July heating degree days 1794 2383  
Cooling Degree Days 0 0  
Month to date cooling degree days 0 0  
Year to date cooling degree days 638 471  
Moisture  
Dew Point 31 °F    
Average Humidity 74    
Maximum Humidity 93    
Minimum Humidity 54    
Precipitation  
Precipitation 0.10 in 0.11 in 1.19 in (1967)
Month to date precipitation 5.10 3.49  
Year to date precipitation 67.09 47.74  
Snow  
Snow 0.00 in 0.60 in 13.10 in (1967)
Month to date snowfall 0.3 12.8  
Since 1 July snowfall 16.3 15.6  
Snow Depth 0.00 in    
Sea Level Pressure  
Sea Level Pressure 29.37 in    
Wind  
Wind Speed 19 mph (West)    
Max Wind Speed 36 mph    
Max Gust Speed 48 mph    
Visibility 10 miles    
Events Rain    
T = Trace of Precipitation, MM = Missing Value Source: NWS Daily Summary

Daily Weather History Graph

Daily Weather History Graph

Search for Another Location

Airport or City:

Trip Planner

Search our weather history database for the weather conditions in past years. The results will help you decide how hot, cold, wet, or windy it might be!

Date:

Astronomy

Dec. 28, 2011 Rise Set
Actual Time 7:15 AM EST 4:22 PM EST
Civil Twilight 6:43 AM EST 4:54 PM EST
Nautical Twilight 6:08 AM EST 5:29 PM EST
Astronomical Twilight 5:34 AM EST 6:03 PM EST
Moon 9:35 AM EST (12/28) 9:00 PM EST (12/28)
Length of Visible Light 10h 10m
Length of Day
9h 06m
Waxing Crescent, 18% of the Moon is Illuminated
Dec 28
Waxing Crescent
Jan 1
First Quarter
Jan 9
Full
Jan 16
Last Quarter
Jan 23
New

Hourly Weather History & Observations

Time (EST) Temp. Windchill Dew Point Humidity Pressure Visibility Wind Dir Wind Speed Gust Speed Precip Events Conditions
12:54 AM 54.0 °F - 53.1 °F 97% 29.29 in 10.0 mi SSW 13.8 mph - 0.10 in Rain Light Rain
1:15 AM 53.6 °F - 51.8 °F 94% 29.27 in 10.0 mi SSW 16.1 mph - 0.00 in   Overcast
1:39 AM 51.8 °F - 48.2 °F 88% 29.27 in 10.0 mi SW 19.6 mph 26.5 mph 0.00 in   Scattered Clouds
1:54 AM 51.1 °F - 46.9 °F 86% 29.29 in 10.0 mi SW 15.0 mph - 0.00 in   Partly Cloudy
2:54 AM 48.9 °F - 46.9 °F 93% 29.29 in 10.0 mi SW 9.2 mph - N/A   Scattered Clouds
3:33 AM 48.2 °F - 44.6 °F 87% 29.25 in 10.0 mi WSW 17.3 mph 26.5 mph N/A   Mostly Cloudy
3:47 AM 46.4 °F 39.8 °F 41.0 °F 81% 29.26 in 10.0 mi WSW 16.1 mph 24.2 mph N/A   Scattered Clouds
3:54 AM 46.9 °F - 41.0 °F 80% 29.28 in 10.0 mi WSW 16.1 mph - N/A   Scattered Clouds
4:13 AM 46.4 °F 38.7 °F 39.2 °F 76% 29.26 in 10.0 mi WSW 20.7 mph 28.8 mph N/A   Mostly Cloudy
4:31 AM 44.6 °F 37.2 °F 37.4 °F 76% 29.26 in 10.0 mi WSW 17.3 mph 24.2 mph N/A   Scattered Clouds
4:54 AM 44.1 °F 37.1 °F 37.0 °F 76% 29.27 in 10.0 mi WSW 15.0 mph 23.0 mph N/A   Clear
5:15 AM 42.8 °F 35.8 °F 37.4 °F 81% 29.26 in 10.0 mi WSW 13.8 mph - N/A   Mostly Cloudy
5:54 AM 42.1 °F 34.5 °F 36.0 °F 79% 29.30 in 10.0 mi WSW 15.0 mph - N/A   Overcast
6:21 AM 42.8 °F 36.2 °F 35.6 °F 76% 29.28 in 10.0 mi WSW 12.7 mph 20.7 mph N/A   Overcast
6:54 AM 42.1 °F 34.9 °F 36.0 °F 79% 29.31 in 10.0 mi West 13.8 mph 21.9 mph N/A   Overcast
7:45 AM 42.8 °F 35.1 °F 35.6 °F 76% 29.30 in 10.0 mi West 16.1 mph 23.0 mph N/A   Mostly Cloudy
7:54 AM 42.1 °F 34.2 °F 35.1 °F 76% 29.32 in 10.0 mi West 16.1 mph 21.9 mph N/A   Overcast
8:54 AM 41.0 °F 33.5 °F 30.9 °F 67% 29.34 in 10.0 mi West 13.8 mph 24.2 mph N/A   Overcast
9:54 AM 41.0 °F 33.1 °F 30.9 °F 67% 29.34 in 10.0 mi West 15.0 mph 21.9 mph N/A   Overcast
10:54 AM 39.9 °F 31.4 °F 28.9 °F 65% 29.34 in 10.0 mi West 16.1 mph 41.4 mph N/A   Overcast
11:49 AM 39.2 °F 29.3 °F 28.4 °F 65% 29.32 in 10.0 mi West 20.7 mph 31.1 mph N/A   Overcast
11:54 AM 39.9 °F 30.8 °F 28.9 °F 65% 29.33 in 10.0 mi West 18.4 mph 31.1 mph N/A   Mostly Cloudy
12:54 PM 39.2 °F 29.0 °F 28.4 °F 65% 29.33 in 10.0 mi West 21.9 mph 32.2 mph N/A   Mostly Cloudy
1:54 PM 37.0 °F 25.9 °F 23.0 °F 57% 29.37 in 10.0 mi West 23.0 mph 36.8 mph N/A   Partly Cloudy
2:54 PM 33.1 °F 20.9 °F 19.9 °F 59% 29.40 in 10.0 mi West 21.9 mph 36.8 mph N/A   Scattered Clouds
3:54 PM 30.9 °F 17.5 °F 17.1 °F 57% 29.45 in 10.0 mi West 24.2 mph 31.1 mph N/A   Scattered Clouds
4:54 PM 28.4 °F 14.7 °F 15.8 °F 59% 29.46 in 10.0 mi West 21.9 mph 35.7 mph N/A   Mostly Cloudy
5:54 PM 27.0 °F 11.6 °F 15.1 °F 61% 29.50 in 10.0 mi West 26.5 mph 43.7 mph N/A   Partly Cloudy
6:54 PM 26.1 °F 9.6 °F 15.1 °F 63% 29.52 in 10.0 mi West 29.9 mph 47.2 mph N/A   Scattered Clouds
7:54 PM 25.0 °F 9.5 °F 14.0 °F 63% 29.55 in 10.0 mi West 24.2 mph 43.7 mph N/A   Clear
8:54 PM 24.1 °F 7.1 °F 14.0 °F 65% 29.56 in 10.0 mi West 28.8 mph 38.0 mph N/A   Clear
9:54 PM 24.1 °F 8.0 °F 12.9 °F 62% 29.59 in 10.0 mi West 25.3 mph 36.8 mph N/A   Clear
10:54 PM 24.1 °F 10.6 °F 14.0 °F 65% 29.61 in 10.0 mi West 17.3 mph 33.4 mph N/A   Clear
11:54 PM 24.1 °F 8.3 °F 12.9 °F 62% 29.65 in 10.0 mi West 24.2 mph 33.4 mph N/A   Clear